Location: ?????????
(40.9212°N, 22.9521°E)
Time: 23:18:55
(UTC+00:00)

Daily predictions for brighter satellites

Satellite Brightness Start Highest point End
(mag) Time Altitude Azimuth Time Altitude Azimuth Time Altitude Azimuth
Cosmos 494 Rocket 4.4 18:18:42 10° N 18:23:48 49° ENE 18:28:51 10° SE
Cosmos 1378 Rocket 4.2 18:19:29 10° SSW 18:23:50 61° W 18:28:14 10° N
Feng Yun 1-1 Rocket 4.2 18:19:20 10° SSE 18:24:48 87° ENE 18:30:13 10° NNW
Timation 2 Rocket 4.1 18:21:08 10° S 18:27:16 52° ESE 18:33:11 10° NE
DELTA 2 DEB (DPAF) 4.1 18:23:27 10° NNE 18:27:33 53° E 18:31:37 10° S
Cosmos 1892 3.8 18:26:05 10° SSW 18:29:28 44° W 18:32:54 10° N
Cosmos 1844 4.1 18:24:19 10° SSW 18:30:06 74° WNW 18:35:54 10° NNE
Cosmos 2112 Rocket 4.5 18:28:08 10° NNW 18:33:19 64° WSW 18:38:31 10° S
NOSS 2-3 (E) 3.1 18:30:34 10° SSW 18:34:13 84° SE 18:38:04 10° NE
Cosmos 1025 Rocket 3.0 18:34:17 10° S 18:38:28 63° E 18:42:40 10° NNE
CARTOSAT-1 4.1 18:35:36 10° S 18:39:48 61° W 18:44:02 10° NNW
H-II Stage 2 3.9 18:38:07 10° SSW 18:40:01 15° SSE 18:43:13 10° SE
Cosmos 1125 Rocket 4.0 18:36:14 10° S 18:41:08 40° ESE 18:46:04 10° NE
Cosmos 1833 Rocket 4.2 18:38:08 10° N 18:42:28 22° NE 18:46:47 10° ESE
ATLAS CENTAUR R/B 1.8 18:38:46 10° NNW 18:42:39 46° NE 18:46:25 11° SE
CZ-4B R/B 3.8 18:37:33 10° S 18:42:59 59° W 18:48:32 10° NNW
Nadezhda 3 Rocket 4.4 18:37:13 10° N 18:43:05 44° ENE 18:48:55 10° SSE
Lacrosse 5 4.0 18:39:36 10° W 18:44:02 30° NNW 18:48:31 10° NNE
Okean 1 Rocket 3.2 18:42:29 10° N 18:46:58 80° W 18:51:25 10° S
NOSS 2-2 (D) 3.5 18:44:42 10° SW 18:48:06 58° NW 18:51:10 10° NNE
Cosmos 2181 Rocket 4.2 18:42:30 10° N 18:48:41 78° W 18:54:54 10° S
Cosmos 1455 Rocket 3.5 18:44:53 10° N 18:49:04 43° ENE 18:52:59 11° SSE
Cosmos 1975 Rocket 3.6 18:45:46 10° SSE 18:49:55 40° E 18:54:06 10° NNE
MetOp-B 4.4 18:47:40 10° SSE 18:52:51 53° ENE 18:58:03 10° N
Cosmos 1295 Rocket 4.5 18:46:49 10° S 18:53:01 76° E 18:59:20 10° N
GP-B 3.0 18:48:57 10° N 18:53:23 82° E 18:57:46 10° S
NOSS 2-3 (C) 3.8 18:50:02 10° SW 18:53:35 59° NW 18:57:24 10° NNE
PSLV R/B 3.8 18:50:38 10° S 18:54:08 68° WSW 18:57:44 10° NNW
Cosmos 1844 Rocket 4.3 18:51:42 10° SW 18:56:51 39° WNW 19:02:04 10° N
Meteor 1-21 Rocket 4.2 18:54:43 10° S 19:00:16 90° N 19:05:50 10° N
Cosmos 2278 Rocket 3.5 19:03:08 15° SE 19:05:53 20° E 19:09:57 10° NE
Meteor 2-1 Rocket 4.4 19:07:04 10° N 19:12:34 54° ENE 19:16:42 17° SSE
Cosmos 921 Rocket 3.1 19:08:31 10° NNW 19:12:42 74° WSW 19:16:21 13° S
Cosmos 2184 Rocket 4.4 19:09:28 10° SSW 19:15:47 67° W 19:22:05 10° N
SPOT 5 3.0 19:13:07 12° SSE 19:17:42 87° WSW 19:22:54 10° NNW
Cosmos 2228 4.3 19:15:04 10° NNE 19:18:28 23° ENE 19:20:03 19° ESE
ERS-1 Rocket 3.1 19:14:59 17° SSE 19:18:42 59° ENE 19:23:37 10° N
MOS 1 Rocket 3.6 19:16:08 19° SE 19:19:09 48° ENE 19:23:24 10° N
Resurs 01 Rocket 3.9 19:17:34 10° SW 19:20:55 21° W 19:24:18 10° NW
Okean O Rocket 3.3 19:18:38 10° SSW 19:22:24 30° W 19:26:12 10° NW
Cosmos 1869 3.6 19:19:10 10° N 19:22:51 44° E 19:24:41 25° SE
USA 276 2.0 19:24:49 10° NW 19:27:45 71° NNE 19:28:53 34° ESE
Spot 2 Rocket 3.8 19:24:58 21° SE 19:28:09 52° ENE 19:33:07 10° N
Cosmos 1943 Rocket 3.5 19:27:47 19° ESE 19:28:40 20° E 19:32:35 10° NE
ISS -0.8 19:30:08 10° NNW 19:31:49 13° N 19:33:30 10° NE
Cosmos 2341 Rocket 4.2 19:27:26 17° SSE 19:32:13 52° E 19:38:20 10° NNE
Meteor 1-11 4.2 19:27:16 10° S 19:33:00 88° W 19:38:43 10° N
Milstar 3 4.4 19:31:30 10° SSW 19:37:14 21° SE 19:45:11 10° ESE
Terra 1.7 19:36:47 24° SSE 19:39:36 79° ENE 19:44:21 10° N
ATLAS 3B R/B 3.6 19:40:11 23° SE 19:42:57 30° ESE 19:49:11 10° NE
Cosmos 44 3.9 19:40:54 10° SW 19:46:08 63° NW 19:51:12 10° NNE
CZ-4C R/B 4.4 19:43:14 10° N 19:46:37 39° WNW 19:49:51 10° SW
USA 215 3.3 19:49:36 26° SE 19:53:36 78° SW 20:00:11 10° NW
Ariane Rocket 2.9 19:53:08 30° SSE 19:55:44 85° ENE 20:00:50 10° NNW
Cosmos 2298 Rocket 4.1 19:50:44 10° SSW 19:56:03 80° WNW 20:01:24 10° NNE
Cosmos 1606 3.4 19:59:49 10° NNW 20:03:13 45° W 20:04:31 30° SW
Cosmos 220 Rocket 4.1 19:59:13 10° NNW 20:03:20 63° WSW 20:04:46 37° S
Landsat 5 3.8 20:01:03 10° NNE 20:05:19 50° E 20:06:02 45° SE
Cosmos 1544 Rocket 3.6 20:02:36 10° NNW 20:06:55 73° W 20:08:31 37° S
Cosmos 1437 Rocket 3.1 20:10:15 32° SW 20:11:38 56° WNW 20:15:13 10° N
NOSS 3-1 (C) 3.1 20:07:47 10° SW 20:12:31 74° NW 20:18:09 10° NNE
Geosat 3.9 20:12:07 10° NNE 20:17:10 88° ESE 20:20:29 22° SSW
GENESIS II 4.1 20:14:02 10° NW 20:17:32 57° WSW 20:17:38 57° SW
Cosmos 2366 rocket 4.0 20:15:57 24° SSW 20:19:53 81° W 20:26:03 10° N
ATLAS CENTAUR R/B 3.5 20:17:17 10° WNW 20:19:54 17° WSW 20:21:19 14° SW
Cosmos 1833 Rocket 3.0 20:21:14 10° NNW 20:26:47 58° WSW 20:28:52 36° S
SL-8 Rocket 4.4 20:23:18 18° SSW 20:28:04 62° W 20:34:20 10° N
Cosmos 1606 Rocket 3.5 20:35:30 10° N 20:39:48 65° E 20:39:51 65° E
Cosmos 1726 Rocket 3.9 20:36:31 10° N 20:40:36 47° ENE 20:40:36 47° ENE
Cosmos 2082 Rocket 2.4 20:41:15 10° NNW 20:46:47 57° ENE 20:48:00 47° ESE
BREEZE-M R/B 4.2 20:45:07 10° W 20:49:08 57° NNW 21:00:21 10° ENE
Cosmos 2278 Rocket 2.8 20:44:51 15° SW 20:49:28 55° WNW 20:55:03 10° NNE
Cosmos 2369 Rocket 4.1 20:51:32 15° E 20:51:32 15° E 20:53:35 10° ENE
Cosmos 1140 Rocket 4.4 20:46:37 10° N 20:51:18 34° ENE 20:52:03 33° E
SL-08 R/B 4.4 20:50:28 52° SSE 20:51:50 68° E 20:57:55 10° NNE
NOSS 3-1 (A) 2.9 20:50:04 40° SW 20:51:54 81° NW 20:57:35 10° NNE
Cosmos 2084 Rocket 3.6 20:52:58 10° NNW 20:56:25 60° N 20:56:25 60° N
USA 290 4.2 21:02:43 26° WNW 21:02:43 26° WNW 21:05:17 10° N
Cosmos 489 Rocket 4.5 21:02:31 54° SE 21:03:11 57° ESE 21:09:16 10° NNE
Cosmos 1812 3.7 21:04:08 10° N 21:06:34 41° N 21:06:34 41° N
ISS -1.7 21:06:34 10° NW 21:09:07 25° NNE 21:09:07 25° NNE
Cosmos 1943 Rocket 2.7 21:09:13 30° SW 21:11:53 57° WNW 21:17:27 10° NNE
Cosmos 2058 Rocket 3.5 21:10:21 10° N 21:14:02 53° NE 21:14:02 53° NE
Terra 4.5 21:17:32 10° W 21:17:43 10° W 21:17:56 10° W
Cosmos 1934 Rocket 3.9 21:18:57 62° SE 21:19:52 71° E 21:26:04 10° NNE
USA 229 DEB 3.6 21:20:17 52° ESE 21:20:17 52° ESE 21:26:24 10° NE
USA 229 3.6 21:20:27 51° ESE 21:20:27 51° ESE 21:26:31 10° NE
Cosmos 192 4.3 21:21:14 74° W 21:21:28 76° WNW 21:26:25 10° NNE
Spot 4 4.2 21:22:11 52° ENE 21:22:11 52° ENE 21:26:50 10° N
COSMOS 2406 3.0 21:19:45 10° NNW 21:25:28 89° WSW 21:25:54 77° SSE
ARIANE 5 R/B 2.9 21:27:15 65° WNW 21:27:15 65° WNW 21:31:17 10° NNW
ATLAS 3B R/B 3.3 21:27:17 15° SW 21:33:11 60° NW 21:40:44 10° NNE
Lacrosse 4 Rocket 3.8 21:39:12 13° ENE 21:39:12 13° ENE 21:39:52 10° NE
H-2A R/B 3.4 21:42:23 41° N 21:42:23 41° N 21:44:58 10° N
CZ-4C R/B 3.2 21:35:57 10° NNW 21:43:15 66° NE 21:46:33 40° ESE
ALOS 2 3.2 21:44:40 51° NNE 21:44:40 51° NNE 21:48:15 10° N
Lacrosse 5 rocket 3.8 21:48:31 14° NE 21:48:31 14° NE 21:49:05 10° NE
Gblst 52 Del rocket 4.0 21:47:25 85° ENE 21:47:25 85° ENE 21:52:46 10° NE
SeaSat 1 2.7 21:53:41 58° ENE 21:53:41 58° ENE 21:58:29 10° NNW
SL-19 R/B 4.5 21:47:28 10° NNE 21:54:01 67° ESE 21:54:25 65° SE
Cosmos-2242 3.9 21:51:42 10° N 21:54:44 45° N 21:54:44 45° N
Meteor 2-3 Rocket 3.6 21:56:31 76° E 21:56:31 76° E 22:02:10 10° NNE
Cosmos 1626 Rocket 4.3 21:57:34 51° N 21:57:34 51° N 22:00:50 10° N
Cosmos 1535 Rocket 4.3 21:56:00 74° SSW 21:56:35 85° W 22:02:46 10° N
Cosmos 1238 Rocket 4.1 21:53:37 10° NNW 21:56:00 38° NNW 21:56:00 38° NNW
Gbstr 26 Del rocket 4.5 21:52:20 10° NW 21:57:22 48° NNE 22:00:32 26° E
Meteor 2-2 Rocket 4.2 21:53:25 10° N 21:59:12 75° E 21:59:25 74° E
ULPM Upper Stage 4.3 21:57:01 10° NW 21:59:29 30° WNW 21:59:29 30° WNW
Cosmos 1605 Rocket 3.7 22:02:46 79° S 22:03:12 89° W 22:09:23 10° N
Cosmos 2297 3.6 22:06:03 82° W 22:06:11 84° WNW 22:11:56 10° NNE
Cosmos 1656 Rocket 3.6 22:09:08 73° WNW 22:09:13 73° WNW 22:14:46 10° NNE
COSMOS 2455 4.2 22:04:40 10° NNW 22:10:02 32° NE 22:12:36 23° E
Cosmos 1371 Rocket 4.2 22:14:30 66° ENE 22:14:30 66° ENE 22:19:16 10° NNE
Cosmos 407 Rocket 3.8 22:09:29 10° NNW 22:14:03 60° WNW 22:14:03 60° WNW
Milstar 3 4.3 22:10:49 10° WSW 22:20:18 47° SSE 22:38:12 10° ESE
Meteor 1-26 Rocket 4.2 22:17:01 10° N 22:22:37 73° E 22:22:38 73° E
USA 81 4.2 22:18:25 10° N 22:23:18 65° WNW 22:23:18 65° WNW
Cosmos 2082 Rocket 4.0 22:26:28 10° NW 22:29:49 19° W 22:29:49 19° W
Cosmos 1447 Rocket 4.3 22:24:48 10° N 22:31:04 85° W 22:31:25 80° SSW
Cosmos 1153 Rocket 4.3 22:31:35 80° S 22:31:58 90° E 22:38:18 10° N
Cosmos 2369 Rocket 2.3 22:33:17 64° WNW 22:33:31 65° WNW 22:39:06 10° NNE
Cosmos 2173 Rocket 4.2 22:33:28 54° ESE 22:33:43 55° E 22:39:39 10° NNE
CENTAUR R/B 4.0 22:27:26 10° NNW 22:35:24 48° NE 22:43:38 12° ESE
Cosmos 2221 3.6 22:32:53 10° N 22:35:57 40° NNE 22:35:57 40° NNE
Cosmos 44 Rocket 4.2 22:47:36 41° ENE 22:47:36 41° ENE 22:51:17 10° NE
Cosmos 1624 Rocket 4.3 22:48:22 57° WNW 22:48:22 57° WNW 22:53:25 10° NNE
Cosmos 1954 Rocket 4.1 22:45:07 10° NNW 22:49:38 67° NW 22:49:38 67° NW
Cosmos 2151 4.1 22:51:41 41° NNE 22:51:41 41° NNE 22:54:36 10° NNE
Cosmos 2263 4.4 22:54:09 59° W 22:54:33 60° WNW 23:00:14 10° NNE
Cosmos 2346 Rocket 4.4 22:50:10 10° NNW 22:56:17 69° W 22:56:35 68° WSW
Iridium 4 Rocket 3.7 22:50:29 10° N 22:56:19 77° W 22:56:23 76° W
Meteor 2-21 Rocket 4.4 22:50:20 10° N 22:56:29 74° E 22:57:04 69° SE
H-2A R/B 3.1 22:56:36 10° N 22:59:25 41° NNW 22:59:25 41° NNW
USA 59 Rocket 2.2 23:04:11 14° NE 23:04:11 14° NE 23:04:38 10° NE
Cosmos 1452 Rocket 3.9 23:02:50 53° E 23:02:50 53° E 23:07:27 10° NNE
BREEZE M DEB (TANK) 4.5 22:43:57 10° WNW 23:02:19 88° NNE 23:04:17 46° ESE
Cosmos 2056 Rocket 4.3 23:02:29 41° WNW 23:02:44 42° WNW 23:07:43 10° N
Cosmos 1340 Rocket 4.2 23:04:11 10° N 23:06:44 36° NNE 23:06:44 36° NNE
Meteor 2-15 4.4 23:09:06 67° WSW 23:09:31 70° W 23:15:38 10° N
Meteor 2-8 Rocket 4.3 23:09:19 76° SSE 23:09:45 81° E 23:15:49 10° N
USA 281 3.3 23:11:31 57° WSW 23:11:48 57° WSW 23:18:16 10° NNW
Lacrosse 4 Rocket 3.1 23:15:05 27° NW 23:15:05 27° NW 23:18:12 10° N
Cosmos 1953 Rocket 4.2 23:19:10 52° NNW 23:19:10 52° NNW 23:22:44 10° N
Meteor 2-16 Rocket 4.2 23:14:43 10° N 23:20:53 84° W 23:21:24 75° SSW
Lacrosse 5 rocket 3.3 23:23:15 20° NW 23:23:51 21° NNW 23:26:53 10° NNE
Cosmos 1331 Rocket 3.9 23:24:11 77° ENE 23:24:11 77° ENE 23:29:06 10° NNE
DELTA 2 R/B (1) 4.3 23:26:18 40° ESE 23:26:18 40° ESE 23:29:57 10° E
CZ-2C R/B 4.5 23:24:27 16° ESE 23:27:41 27° ENE 23:32:17 10° N
CZ-4C R/B 3.9 23:24:53 10° NW 23:31:35 33° WSW 23:31:35 33° WSW
SL-08 R/B 4.3 23:32:55 69° S 23:33:43 85° E 23:39:57 10° N
COBE Rocket 4.0 23:29:12 10° NNE 23:33:51 66° E 23:33:51 66° E
BREEZE-M DEB (TANK) 3.9 23:24:17 10° WSW 23:35:21 52° NNW 23:38:45 10° NE
Cosmos 1864 Rocket 4.4 23:34:41 65° SW 23:35:31 74° W 23:41:53 10° N
Cosmos 2016 Rocket 3.9 23:36:27 65° SW 23:37:22 78° W 23:43:44 10° N
SJ 16-02 2.5 23:33:55 10° N 23:37:59 36° ENE 23:38:32 35° E
Cosmos 2233 Rocket 4.0 23:37:42 60° SSE 23:38:49 74° E 23:45:05 10° N
Nimbus 7 Rocket 4.4 23:33:29 10° N 23:39:26 70° WNW 23:40:14 62° WSW
CZ-2D R/B 3.5 23:36:52 10° NE 23:41:09 25° E 23:42:12 24° ESE
Cosmos 1459 Rocket 4.5 23:40:37 43° WSW 23:41:32 46° WNW 23:47:37 10° N
Cosmos 1741 Rocket 3.8 23:38:19 10° NNW 23:43:38 88° ENE 23:43:49 84° SE
Gbstr 26 Del rocket 4.4 23:38:44 10° WNW 23:42:40 41° W 23:42:40 41° W
Meteor 1-10 Rocket 4.2 23:41:45 10° NNW 23:47:40 75° W 23:48:17 68° SW
Cosmos 1816 Rocket 4.5 23:42:45 10° NNW 23:48:47 61° W 23:49:23 58° WSW
Cosmos 1725 Rocket 4.1 23:47:57 56° WSW 23:48:56 63° W 23:55:12 10° N
ASTEX 1 3.3 23:51:02 73° WNW 23:51:02 73° WNW 23:55:50 10° N
USA 234 3.2 23:46:19 10° NE 23:52:52 73° SE 23:54:21 55° SSW
Meteor 1-27 Rocket 3.7 23:48:17 10° N 23:54:08 80° E 23:55:16 59° SSE
